sat.trackr.live / text

‹ back to catalog

STARLINK-3397

NORAD 51115 · 2022-005M

PAYLOAD ACTIVE UNKNOWN

§ Identity

Operator
Country
US
Launch date
2022-01-19
Launch site
AFETR
Launch vehicle
Mass (kg)
RCS (m²)

Purposes: comms

External: N2YO · Heavens-Above · Gunter

§ Orbital elements

Epoch: 2026-09-20T04:35:33.294048Z

Period
93.90 min
Inclination
53.1598°
Eccentricity
0.0001395
Mean motion
15.33539280 rev/d
Perigee alt
464.3 km
Apogee alt
466.2 km
Semi-major
6,843.4 km
B*
-2.7219e-5
RAAN
127.2097°
Arg perigee
111.3040°
Mean anomaly
248.8111°
Rev number
25,835

§ Raw data

STARLINK-33971 51115U 22005M   26263.19135757 -.00001268  00000+0 -27219-4 0  99922 51115  53.1598 127.2097 0001395 111.3040 248.8111 15.33539280258359

JSON: /api/v1/satellites/51115 · /tle

For live sub-satellite position, see the globe view (requires WebGL).

§ Visibility from observer

Set your observer location to see the next 7 days of passes ≥ 10°. The values pass through the URL so the page stays shareable.

No JS? Fill the form by hand. The geolocation button needs JavaScript.